| time (UTC) | temp C | wind direction | speed KPH | gust KPH | rain 1hr cm | rain 24hr cm | rain mn cm | humidity % | barometer mb |
| 20260902234521 | 18 | 333 | 17.7 | 49.9 | 0.00 | 0.00 | 0.00 | 76 | 1018.4 |
| 20260902233519 | 19 | 337 | 19.3 | 27.4 | 0.00 | 0.00 | 0.00 | 74 | 1018.2 |
| 20260902232521 | 19 | 353 | 16.1 | 30.6 | 0.00 | 0.00 | 0.00 | 74 | 1018.2 |
| 20260902231538 | 19 | 335 | 11.3 | 20.9 | 0.00 | 0.00 | 0.00 | 74 | 1018.2 |
| 20260902230519 | 20 | 329 | 12.9 | 22.5 | 0.00 | 0.00 | 0.00 | 72 | 1018.3 |
| 20260902225518 | 20 | 349 | 12.9 | 19.3 | 0.00 | 0.00 | 0.00 | 71 | 1018.3 |
| 20260902224519 | 20 | 356 | 11.3 | 19.3 | 0.00 | 0.00 | 0.00 | 71 | 1018.2 |
| 20260902223518 | 20 | 5 | 11.3 | 14.5 | 0.00 | 0.00 | 0.00 | 71 | 1018.3 |
| 20260902222541 | 20 | 1 | 12.9 | 17.7 | 0.00 | 0.00 | 0.00 | 71 | 1018.3 |
| 20260902221518 | 20 | 349 | 12.9 | 17.7 | 0.00 | 0.00 | 0.00 | 71 | 1018.4 |
| 20260902220538 | 20 | 347 | 12.9 | 17.7 | 0.00 | 0.00 | 0.00 | 70 | 1018.4 |
| 20260902215559 | 20 | 356 | 14.5 | 17.7 | 0.00 | 0.00 | 0.00 | 70 | 1018.3 |
| 20260902214518 | 20 | 8 | 14.5 | 20.9 | 0.00 | 0.00 | 0.00 | 70 | 1018.2 |
| 20260902213517 | 20 | 355 | 17.7 | 25.7 | 0.00 | 0.00 | 0.00 | 70 | 1018.3 |
| 20260902212521 | 20 | 360 | 11.3 | 12.9 | 0.00 | 0.00 | 0.00 | 70 | 1018.3 |
| 20260902211519 | 20 | 6 | 11.3 | 14.5 | 0.00 | 0.00 | 0.00 | 70 | 1018.3 |
| 20260902210521 | 20 | 10 | 12.9 | 16.1 | 0.00 | 0.00 | 0.00 | 70 | 1018.2 |
| 20260902205539 | 20 | 5 | 14.5 | 17.7 | 0.00 | 0.00 | 0.00 | 69 | 1018.1 |
| 20260902204521 | 20 | 11 | 17.7 | 20.9 | 0.00 | 0.00 | 0.00 | 69 | 1018.0 |
| 20260902203519 | 21 | 16 | 17.7 | 24.1 | 0.00 | 0.00 | 0.00 | 68 | 1017.9 |
| 20260902202541 | 21 | 10 | 19.3 | 24.1 | 0.00 | 0.00 | 0.00 | 67 | 1018.0 |
| 20260902201519 | 21 | 7 | 17.7 | 24.1 | 0.00 | 0.00 | 0.00 | 67 | 1018.0 |
| 20260902200521 | 21 | 6 | 14.5 | 22.5 | 0.00 | 0.00 | 0.00 | 67 | 1018.0 |
| 20260902195518 | 21 | 4 | 16.1 | 24.1 | 0.00 | 0.00 | 0.00 | 67 | 1018.0 |
| 20260902194539 | 21 | 356 | 16.1 | 29.0 | 0.00 | 0.00 | 0.00 | 68 | 1018.1 |
| 20260902193519 | 21 | 348 | 17.7 | 29.0 | 0.00 | 0.00 | 0.00 | 68 | 1018.1 |
| 20260902192521 | 21 | 349 | 12.9 | 20.9 | 0.00 | 0.00 | 0.00 | 68 | 1018.2 |
| 20260902191517 | 21 | 360 | 12.9 | 20.9 | 0.00 | 0.00 | 0.00 | 67 | 1018.1 |
| 20260902190522 | 22 | 355 | 14.5 | 19.3 | 0.00 | 0.00 | 0.00 | 67 | 1018.1 |
| 20260902185519 | 22 | 357 | 12.9 | 20.9 | 0.00 | 0.00 | 0.00 | 66 | 1018.1 |
| 20260902184537 | 22 | 357 | 16.1 | 24.1 | 0.00 | 0.00 | 0.00 | 66 | 1018.1 |
| 20260902183518 | 22 | 350 | 17.7 | 27.4 | 0.00 | 0.00 | 0.00 | 65 | 1018.0 |
| 20260902182542 | 23 | 339 | 14.5 | 19.3 | 0.00 | 0.00 | 0.00 | 65 | 1018.0 |
| 20260902181517 | 23 | 338 | 12.9 | 17.7 | 0.00 | 0.00 | 0.00 | 65 | 1017.9 |
| 20260902180522 | 23 | 347 | 8.0 | 11.3 | 0.00 | 0.00 | 0.00 | 65 | 1017.9 |
| 20260902175518 | 23 | 333 | 1.6 | 8.0 | 0.00 | 0.00 | 0.00 | 65 | 1017.8 |
| 20260902174522 | 23 | 17 | 8.0 | 9.7 | 0.00 | 0.00 | 0.00 | 65 | 1017.7 |
| 20260902173517 | 23 | 16 | 1.6 | 6.4 | 0.00 | 0.00 | 0.00 | 65 | 1017.5 |
| 20260902172518 | 23 | 15 | 8.0 | 9.7 | 0.00 | 0.00 | 0.00 | 66 | 1017.5 |
| 20260902171518 | 23 | 347 | 4.8 | 8.0 | 0.00 | 0.00 | 0.00 | 65 | 1017.4 |
| 20260902170540 | 23 | 6 | 3.2 | 8.0 | 0.00 | 0.00 | 0.00 | 65 | 1017.4 |
| 20260902165518 | 23 | 332 | 1.6 | 8.0 | 0.00 | 0.00 | 0.00 | 64 | 1017.2 |
| 20260902164523 | 23 | 355 | 4.8 | 6.4 | 0.00 | 0.00 | 0.00 | 64 | 1017.1 |
| 20260902163518 | 24 | 341 | 0.0 | 4.8 | 0.00 | 0.00 | 0.00 | 63 | 1017.0 |
| 20260902162521 | 25 | 335 | 1.6 | 8.0 | 0.00 | 0.00 | 0.00 | 61 | 1017.1 |
| 20260902161537 | 25 | 343 | 8.0 | 16.1 | 0.00 | 0.00 | 0.00 | 60 | 1017.2 |
| 20260902160517 | 25 | 302 | 4.8 | 11.3 | 0.00 | 0.00 | 0.00 | 61 | 1017.2 |
| 20260902155518 | 25 | 294 | 8.0 | 11.3 | 0.00 | 0.00 | 0.00 | 61 | 1017.3 |
| 20260902154520 | 25 | 285 | 11.3 | 17.7 | 0.00 | 0.00 | 0.00 | 59 | 1017.3 |
| 20260902153519 | 26 | 284 | 16.1 | 20.9 | 0.00 | 0.00 | 0.00 | 57 | 1017.3 |
| 20260902152521 | 26 | 288 | 17.7 | 27.4 | 0.00 | 0.00 | 0.00 | 56 | 1017.3 |
| 20260902151519 | 26 | 282 | 4.8 | 11.3 | 0.00 | 0.00 | 0.00 | 55 | 1017.3 |
| 20260902150542 | 26 | 269 | 11.3 | 17.7 | 0.00 | 0.00 | 0.00 | 56 | 1017.4 |
| 20260902145518 | 26 | 282 | 19.3 | 27.4 | 0.00 | 0.00 | 0.00 | 55 | 1017.3 |
| 20260902144518 | 26 | 313 | 9.7 | 20.9 | 0.00 | 0.00 | 0.00 | 54 | 1017.4 |
| 20260902143518 | 26 | 276 | 22.5 | 30.6 | 0.00 | 0.00 | 0.00 | 54 | 1017.5 |
| 20260902142522 | 26 | 275 | 9.7 | 17.7 | 0.00 | 0.00 | 0.00 | 56 | 1017.5 |
| 20260902141517 | 26 | 340 | 12.9 | 20.9 | 0.00 | 0.00 | 0.00 | 56 | 1017.7 |
| 20260902140539 | 26 | 297 | 14.5 | 32.2 | 0.00 | 0.00 | 0.00 | 56 | 1017.7 |
| 20260902135517 | 26 | 268 | 17.7 | 33.8 | 0.00 | 0.00 | 0.00 | 56 | 1017.8 |
| 20260902134521 | 26 | 313 | 16.1 | 41.8 | 0.00 | 0.00 | 0.00 | 57 | 1017.8 |
| 20260902133518 | 26 | 295 | 20.9 | 30.6 | 0.00 | 0.00 | 0.00 | 57 | 1017.9 |
| 20260902132542 | 25 | 283 | 11.3 | 20.9 | 0.00 | 0.00 | 0.00 | 59 | 1018.1 |
| 20260902131518 | 25 | 279 | 25.7 | 37.0 | 0.00 | 0.00 | 0.00 | 60 | 1018.2 |
| 20260902130541 | 26 | 299 | 9.7 | 25.7 | 0.00 | 0.00 | 0.00 | 59 | 1018.2 |
| 20260902125517 | 27 | 336 | 19.3 | 35.4 | 0.00 | 0.00 | 0.00 | 58 | 1018.2 |
| 20260902124521 | 26 | 182 | 11.3 | 20.9 | 0.00 | 0.00 | 0.00 | 57 | 1018.3 |
| 20260902123538 | 26 | 228 | 29.0 | 41.8 | 0.00 | 0.00 | 0.00 | 57 | 1018.4 |
| 20260902122520 | 26 | 252 | 20.9 | 35.4 | 0.00 | 0.00 | 0.00 | 60 | 1018.5 |
| 20260902121519 | 25 | 235 | 24.1 | 37.0 | 0.00 | 0.00 | 0.00 | 62 | 1018.7 |
| 20260902120541 | 25 | 242 | 29.0 | 41.8 | 0.00 | 0.00 | 0.00 | 64 | 1018.7 |
| 20260902115538 | 24 | 245 | 19.3 | 29.0 | 0.00 | 0.00 | 0.00 | 64 | 1018.7 |
| 20260902114520 | 24 | 305 | 8.0 | 14.5 | 0.00 | 0.00 | 0.00 | 65 | 1018.8 |
| 20260902113538 | 23 | 3 | 8.0 | 17.7 | 0.00 | 0.00 | 0.00 | 66 | 1018.9 |
| 20260902112516 | 23 | 318 | 17.7 | 33.8 | 0.00 | 0.00 | 0.00 | 67 | 1019.0 |
| 20260902111541 | 24 | 268 | 27.4 | 37.0 | 0.00 | 0.00 | 0.00 | 66 | 1019.1 |
| 20260902110520 | 24 | 284 | 33.8 | 48.3 | 0.00 | 0.00 | 0.00 | 65 | 1019.2 |
| 20260902105537 | 24 | 290 | 25.7 | 43.5 | 0.00 | 0.00 | 0.00 | 67 | 1019.2 |
| 20260902104521 | 24 | 275 | 30.6 | 53.1 | 0.00 | 0.00 | 0.00 | 67 | 1019.3 |
| 20260902103518 | 25 | 300 | 12.9 | 27.4 | 0.00 | 0.00 | 0.00 | 66 | 1019.3 |
| 20260902102539 | 24 | 327 | 9.7 | 14.5 | 0.00 | 0.00 | 0.00 | 65 | 1019.4 |
| 20260902101558 | 24 | 288 | 29.0 | 48.3 | 0.00 | 0.00 | 0.00 | 65 | 1019.5 |
| 20260902100522 | 24 | 301 | 22.5 | 30.6 | 0.00 | 0.00 | 0.00 | 65 | 1019.6 |
| 20260902095518 | 24 | 332 | 16.1 | 27.4 | 0.00 | 0.00 | 0.00 | 65 | 1019.6 |
| 20260902094519 | 25 | 293 | 22.5 | 48.3 | 0.00 | 0.00 | 0.00 | 64 | 1019.7 |
| 20260902093517 | 25 | 294 | 20.9 | 30.6 | 0.00 | 0.00 | 0.00 | 63 | 1019.7 |
| 20260902092522 | 25 | 226 | 16.1 | 32.2 | 0.00 | 0.00 | 0.00 | 66 | 1019.8 |
| 20260902091516 | 24 | 198 | 16.1 | 41.8 | 0.00 | 0.00 | 0.00 | 67 | 1019.9 |
| 20260902090518 | 24 | 258 | 16.1 | 27.4 | 0.00 | 0.00 | 0.00 | 69 | 1019.8 |
| 20260902085519 | 23 | 195 | 22.5 | 43.5 | 0.00 | 0.00 | 0.00 | 71 | 1019.9 |
| 20260902084521 | 22 | 233 | 9.7 | 20.9 | 0.00 | 0.00 | 0.00 | 74 | 1019.9 |
| 20260902083518 | 22 | 265 | 14.5 | 20.9 | 0.00 | 0.00 | 0.00 | 74 | 1020.1 |
| 20260902082522 | 21 | 218 | 11.3 | 19.3 | 0.00 | 0.00 | 0.00 | 75 | 1020.1 |
| 20260902081518 | 21 | 222 | 20.9 | 29.0 | 0.00 | 0.00 | 0.00 | 76 | 1020.2 |
| 20260902080521 | 21 | 179 | 16.1 | 29.0 | 0.00 | 0.00 | 0.00 | 77 | 1020.1 |
| 20260902075519 | 21 | 234 | 9.7 | 25.7 | 0.00 | 0.00 | 0.00 | 78 | 1020.0 |
| 20260902074521 | 21 | 252 | 17.7 | 27.4 | 0.00 | 0.00 | 0.00 | 77 | 1020.0 |
| 20260902073517 | 20 | 330 | 8.0 | 12.9 | 0.00 | 0.00 | 0.00 | 80 | 1019.9 |
| 20260902072518 | 20 | 89 | 3.2 | 8.0 | 0.00 | 0.00 | 0.00 | 82 | 1020.0 |
| 20260902071518 | 19 | 276 | 9.7 | 17.7 | 0.00 | 0.00 | 0.00 | 85 | 1020.0 |
| 20260902070520 | 18 | 307 | 11.3 | 19.3 | 0.00 | 0.00 | 0.00 | 86 | 1020.1 |
| 20260902065517 | 18 | 285 | 17.7 | 25.7 | 0.00 | 0.00 | 0.00 | 86 | 1020.1 |
| 20260902064520 | 18 | 273 | 25.7 | 38.6 | 0.00 | 0.00 | 0.00 | 86 | 1020.2 |
| 20260902063522 | 18 | 298 | 17.7 | 27.4 | 0.00 | 0.00 | 0.00 | 87 | 1020.0 |
| 20260902062601 | 17 | 272 | 22.5 | 30.6 | 0.00 | 0.00 | 0.00 | 87 | 1019.9 |
| 20260902061518 | 18 | 306 | 16.1 | 29.0 | 0.00 | 0.00 | 0.00 | 87 | 1020.0 |
| 20260902060518 | 17 | 306 | 19.3 | 30.6 | 0.00 | 0.00 | 0.00 | 87 | 1019.9 |
| 20260902055522 | 17 | 283 | 24.1 | 41.8 | 0.00 | 0.00 | 0.00 | 89 | 1019.8 |
| 20260902054523 | 17 | 268 | 25.7 | 35.4 | 0.00 | 0.00 | 0.00 | 90 | 1019.9 |
| 20260902053519 | 16 | 279 | 22.5 | 33.8 | 0.00 | 0.00 | 0.00 | 91 | 1019.8 |
| 20260902052519 | 16 | 287 | 19.3 | 33.8 | 0.00 | 0.00 | 0.00 | 91 | 1019.7 |
| 20260902051557 | 16 | 279 | 17.7 | 22.5 | 0.00 | 0.00 | 0.00 | 91 | 1019.7 |
| 20260902050519 | 16 | 271 | 16.1 | 24.1 | 0.00 | 0.00 | 0.00 | 92 | 1019.7 |
| 20260902045518 | 16 | 273 | 12.9 | 24.1 | 0.00 | 0.00 | 0.00 | 91 | 1019.6 |
| 20260902044542 | 16 | 269 | 9.7 | 14.5 | 0.00 | 0.00 | 0.00 | 91 | 1019.6 |
| 20260902043521 | 16 | 186 | 6.4 | 12.9 | 0.00 | 0.00 | 0.00 | 91 | 1019.5 |
| 20260902042541 | 16 | 336 | 6.4 | 12.9 | 0.00 | 0.00 | 0.00 | 91 | 1019.3 |
| 20260902041517 | 16 | 322 | 8.0 | 12.9 | 0.00 | 0.00 | 0.00 | 92 | 1019.3 |
| 20260902040522 | 16 | 351 | 6.4 | 14.5 | 0.00 | 0.00 | 0.00 | 91 | 1019.3 |
| 20260902035518 | 16 | 331 | 8.0 | 12.9 | 0.00 | 0.00 | 0.00 | 91 | 1019.3 |
| 20260902034540 | 16 | 304 | 8.0 | 17.7 | 0.00 | 0.00 | 0.00 | 91 | 1019.3 |
| 20260902033518 | 16 | 348 | 9.7 | 14.5 | 0.00 | 0.00 | 0.00 | 91 | 1019.2 |
| 20260902032521 | 16 | 265 | 4.8 | 8.0 | 0.00 | 0.00 | 0.00 | 92 | 1019.3 |
| 20260902031517 | 16 | 316 | 8.0 | 16.1 | 0.00 | 0.00 | 0.00 | 92 | 1019.2 |
| 20260902025517 | 16 | 297 | 14.5 | 32.2 | 0.00 | 0.00 | 0.00 | 92 | 1019.4 |
| 20260902024522 | 15 | 337 | 9.7 | 16.1 | 0.00 | 0.00 | 0.00 | 91 | 1019.2 |
| 20260902023518 | 15 | 270 | 6.4 | 11.3 | 0.00 | 0.00 | 0.00 | 91 | 1019.2 |
| 20260902022519 | 15 | 327 | 12.9 | 29.0 | 0.00 | 0.00 | 0.00 | 90 | 1019.0 |
| 20260902021521 | 15 | 183 | 4.8 | 8.0 | 0.00 | 0.00 | 0.00 | 90 | 1019.0 |
| 20260902020541 | 15 | 139 | 11.3 | 17.7 | 0.00 | 0.00 | 0.00 | 89 | 1018.9 |
| 20260902015519 | 16 | 137 | 4.8 | 11.3 | 0.00 | 0.00 | 0.00 | 89 | 1018.8 |
| 20260902014517 | 16 | 20 | 20.9 | 33.8 | 0.00 | 0.00 | 0.00 | 90 | 1018.8 |
| 20260902013517 | 15 | 22 | 14.5 | 17.7 | 0.00 | 0.00 | 0.00 | 89 | 1018.8 |
| 20260902012521 | 16 | 57 | 6.4 | 16.1 | 0.00 | 0.00 | 0.00 | 88 | 1018.9 |
| 20260902011517 | 16 | 151 | 9.7 | 14.5 | 0.00 | 0.00 | 0.00 | 87 | 1018.8 |
| 20260902010517 | 16 | 176 | 3.2 | 11.3 | 0.00 | 0.00 | 0.00 | 87 | 1018.6 |
| 20260902005517 | 16 | 14 | 8.0 | 12.9 | 0.00 | 0.00 | 0.00 | 88 | 1018.5 |
| 20260902004518 | 16 | 349 | 17.7 | 27.4 | 0.00 | 0.00 | 0.00 | 88 | 1018.5 |
| 20260902003518 | 16 | 329 | 8.0 | 11.3 | 0.00 | 0.00 | 0.00 | 88 | 1018.5 |
| 20260902002522 | 16 | 26 | 11.3 | 17.7 | 0.00 | 0.00 | 0.00 | 87 | 1018.5 |
| 20260902001519 | 16 | 153 | 4.8 | 11.3 | 0.00 | 0.00 | 0.00 | 87 | 1018.6 |
| 20260902000521 | 16 | 128 | 3.2 | 8.0 | 0.00 | 0.00 | 0.00 | 85 | 1018.6 |
| 20260901235518 | 17 | 156 | 1.6 | 8.0 | 0.00 | 0.00 | 0.00 | 84 | 1018.5 |